STARLINK-34243

Last updated on Thu Jul 03 2025 00:02:06 GMT+0000 (Coordinated Universal Time)

1 64361U 25126T 25183.58335648 -.01399838 00000+0 -16914-1 0 9991 2 64361 69.9995 310.1971 0003107 269.2796 328.1978 15.63218763 4322
UTC large
Height (km)
Speed (km/s)
/
Latitude / Longitude
Inclination (degrees)
Orbital Period (minutes)
Azimuth
Elevation
Range (km)
Doppler Factor

Next 0 passes for location: London (51.5072 / 0.1276)

Sorry there are no passes over London.